• Em Portugal
  • Lista de países
  • Para 7 dias
  • Temperatura da água
  • Mapas de satélite
  • Mapa do tempo
  • Widgets de tempo
  • user-avatar
    Iniciar Sessão

    Previsão horária em Ropotamo

    Hoje, 16 Outubro, Terça-feira

    Tempo Temperatura Precipitação Vento Pressão Humidade
    00:00 +14°C° 0 mm 4 m/s 763 mmHg 89%
    01:00 +13°C° 0 mm 4 m/s 763 mmHg 90%
    02:00 +13°C° 0 mm 4 m/s 763 mmHg 91%
    03:00 +13°C° 0 mm 4 m/s 763 mmHg 91%
    04:00 +13°C° 0 mm 4 m/s 763 mmHg 91%
    05:00 +12°C° 0 mm 4 m/s 763 mmHg 92%
    06:00 +13°C° 0 mm 4 m/s 763 mmHg 89%
    07:00 +14°C° 0 mm 4 m/s 763 mmHg 86%
    08:00 +14°C° 0 mm 4 m/s 763 mmHg 83%
    09:00 +17°C° 0 mm 4 m/s 763 mmHg 76%
    10:00 +19°C° 0 mm 4 m/s 763 mmHg 69%
    11:00 +21°C° 0 mm 4 m/s 763 mmHg 61%
    12:00 +22°C° 0 mm 4 m/s 763 mmHg 60%
    13:00 +22°C° 0 mm 5 m/s 763 mmHg 58%
    14:00 +23°C° 0 mm 5 m/s 763 mmHg 56%
    15:00 +22°C° 0 mm 5 m/s 762 mmHg 61%
    16:00 +21°C° 0 mm 4 m/s 762 mmHg 65%
    17:00 +20°C° 0 mm 4 m/s 762 mmHg 70%
    18:00 +19°C° 0 mm 4 m/s 762 mmHg 74%
    19:00 +18°C° 0 mm 3 m/s 762 mmHg 79%
    20:00 +17°C° 0 mm 2 m/s 762 mmHg 84%
    21:00 +16°C° 0 mm 2 m/s 762 mmHg 83%
    22:00 +16°C° 0 mm 2 m/s 762 mmHg 82%
    23:00 +16°C° 0 mm 2 m/s 762 mmHg 82%

    Amanhã, 17 Outubro, Quarta-feira

    Tempo Temperatura Precipitação Vento Pressão Humidade
    00:00 +14°C° 0 mm 3 m/s 762 mmHg 81%
    01:00 +14°C° 0 mm 3 m/s 762 mmHg 80%
    02:00 +14°C° 0 mm 3 m/s 762 mmHg 80%
    03:00 +14°C° 0 mm 3 m/s 762 mmHg 78%
    04:00 +14°C° 0 mm 3 m/s 761 mmHg 77%
    05:00 +13°C° 0 mm 4 m/s 761 mmHg 76%
    06:00 +14°C° 0 mm 4 m/s 761 mmHg 71%
    07:00 +15°C° 0 mm 4 m/s 761 mmHg 67%
    08:00 +17°C° 0 mm 4 m/s 761 mmHg 63%
    09:00 +18°C° 0 mm 4 m/s 761 mmHg 60%
    10:00 +20°C° 0 mm 4 m/s 761 mmHg 56%
    11:00 +22°C° 0 mm 5 m/s 761 mmHg 53%
    12:00 +22°C° 0 mm 5 m/s 761 mmHg 54%
    13:00 +23°C° 0 mm 5 m/s 761 mmHg 55%
    14:00 +23°C° 0 mm 5 m/s 760 mmHg 56%
    15:00 +22°C° 0 mm 5 m/s 760 mmHg 59%
    16:00 +21°C° 0 mm 4 m/s 760 mmHg 63%
    17:00 +20°C° 0 mm 4 m/s 760 mmHg 67%
    18:00 +19°C° 0 mm 4 m/s 760 mmHg 71%
    19:00 +19°C° 0 mm 4 m/s 760 mmHg 76%
    20:00 +18°C° 0 mm 4 m/s 760 mmHg 80%
    21:00 +17°C° 0 mm 4 m/s 760 mmHg 84%
    22:00 +17°C° 0 mm 3 m/s 760 mmHg 88%
    23:00 +17°C° 0 mm 3 m/s 760 mmHg 92%

    Depois de amanhã, 18 Outubro, Quinta-feira

    Tempo Temperatura Precipitação Vento Pressão Humidade
    00:00 +16°C° 0 mm 3 m/s 760 mmHg 93%
    01:00 +16°C° 0 mm 3 m/s 760 mmHg 93%
    02:00 +15°C° 0 mm 4 m/s 759 mmHg 94%
    03:00 +15°C° 0 mm 4 m/s 759 mmHg 94%
    04:00 +14°C° 0 mm 4 m/s 759 mmHg 94%
    05:00 +14°C° 0 mm 4 m/s 759 mmHg 94%
    06:00 +15°C° 0 mm 4 m/s 759 mmHg 92%
    07:00 +15°C° 0 mm 4 m/s 759 mmHg 90%
    08:00 +15°C° 0 mm 4 m/s 760 mmHg 88%
    09:00 +18°C° 0 mm 4 m/s 759 mmHg 82%
    10:00 +19°C° 0 mm 4 m/s 759 mmHg 76%
    11:00 +20°C° 0 mm 4 m/s 759 mmHg 69%
    12:00 +21°C° 0 mm 4 m/s 759 mmHg 67%
    13:00 +22°C° 0 mm 4 m/s 759 mmHg 64%
    14:00 +22°C° 0 mm 4 m/s 759 mmHg 61%
    15:00 +21°C° 0 mm 4 m/s 758 mmHg 66%
    16:00 +21°C° 0 mm 4 m/s 758 mmHg 71%
    17:00 +20°C° 0 mm 3 m/s 758 mmHg 75%
    18:00 +19°C° 0.1 mm 3 m/s 759 mmHg 81%
    19:00 +18°C° 0.1 mm 3 m/s 759 mmHg 87%
    20:00 +17°C° 0.1 mm 2 m/s 759 mmHg 92%
    21:00 +16°C° 0 mm 2 m/s 759 mmHg 93%
    22:00 +16°C° 0 mm 2 m/s 759 mmHg 94%
    23:00 +16°C° 0 mm 2 m/s 759 mmHg 95%

    19 Outubro, Sexta-feira

    Tempo Temperatura Precipitação Vento Pressão Humidade
    00:00 +16°C° 0 mm 2 m/s 759 mmHg 95%
    01:00 +16°C° 0 mm 2 m/s 759 mmHg 95%
    02:00 +16°C° 0 mm 2 m/s 759 mmHg 95%
    03:00 +15°C° 0 mm 2 m/s 759 mmHg 95%
    04:00 +15°C° 0 mm 2 m/s 759 mmHg 94%
    05:00 +15°C° 0 mm 2 m/s 759 mmHg 94%
    06:00 +16°C° 0 mm 2 m/s 759 mmHg 91%
    07:00 +16°C° 0 mm 2 m/s 759 mmHg 87%
    08:00 +17°C° 0 mm 2 m/s 760 mmHg 83%
    09:00 +19°C° 0 mm 2 m/s 760 mmHg 74%
    10:00 +21°C° 0 mm 2 m/s 760 mmHg 66%
    11:00 +23°C° 0 mm 2 m/s 760 mmHg 57%
    12:00 +24°C° 0 mm 2 m/s 759 mmHg 53%
    13:00 +25°C° 0 mm 2 m/s 759 mmHg 50%
    14:00 +25°C° 0 mm 2 m/s 759 mmHg 47%
    15:00 +24°C° 0 mm 2 m/s 759 mmHg 51%
    16:00 +23°C° 0 mm 2 m/s 759 mmHg 56%
    17:00 +21°C° 0 mm 2 m/s 759 mmHg 61%
    18:00 +21°C° 0 mm 1 m/s 759 mmHg 66%
    19:00 +20°C° 0 mm 1 m/s 759 mmHg 70%
    20:00 +19°C° 0 mm 1 m/s 760 mmHg 75%
    21:00 +19°C° 0 mm 1 m/s 760 mmHg 75%
    22:00 +18°C° 0 mm 1 m/s 760 mmHg 75%
    23:00 +18°C° 0 mm 1 m/s 760 mmHg 75%

    20 Outubro, Sábado

    Tempo Temperatura Precipitação Vento Pressão Humidade
    00:00 +18°C° 0 mm 1 m/s 760 mmHg 75%
    01:00 +18°C° 0 mm 1 m/s 760 mmHg 75%
    02:00 +17°C° 0 mm 2 m/s 759 mmHg 75%
    03:00 +16°C° 0 mm 2 m/s 759 mmHg 76%
    04:00 +16°C° 0 mm 2 m/s 760 mmHg 76%
    05:00 +16°C° 0 mm 2 m/s 760 mmHg 77%
    06:00 +17°C° 0 mm 2 m/s 760 mmHg 74%
    07:00 +17°C° 0 mm 2 m/s 760 mmHg 71%
    08:00 +18°C° 0 mm 2 m/s 760 mmHg 69%
    09:00 +20°C° 0 mm 2 m/s 760 mmHg 61%
    10:00 +21°C° 0 mm 2 m/s 760 mmHg 54%
    11:00 +24°C° 0 mm 2 m/s 760 mmHg 46%
    12:00 +25°C° 0 mm 2 m/s 760 mmHg 44%
    13:00 +25°C° 0 mm 2 m/s 760 mmHg 42%
    14:00 +26°C° 0 mm 2 m/s 759 mmHg 40%
    15:00 +24°C° 0 mm 2 m/s 759 mmHg 44%
    16:00 +23°C° 0 mm 2 m/s 759 mmHg 48%
    17:00 +21°C° 0 mm 2 m/s 759 mmHg 52%
    18:00 +20°C° 0 mm 2 m/s 759 mmHg 55%
    19:00 +20°C° 0 mm 1 m/s 759 mmHg 58%
    20:00 +19°C° 0 mm 1 m/s 760 mmHg 61%
    21:00 +18°C° 0 mm 1 m/s 760 mmHg 62%
    22:00 +16°C° 0 mm 0 m/s 760 mmHg 63%
    23:00 +16°C° 0 mm 0 m/s 760 mmHg 64%

    21 Outubro, Domingo

    Tempo Temperatura Precipitação Vento Pressão Humidade
    00:00 +15°C° 0 mm 0 m/s 760 mmHg 65%
    01:00 +15°C° 0 mm 0 m/s 760 mmHg 66%
    02:00 +16°C° 0 mm 1 m/s 760 mmHg 67%
    03:00 +15°C° 0 mm 1 m/s 760 mmHg 67%
    04:00 +15°C° 0 mm 1 m/s 760 mmHg 67%
    05:00 +15°C° 0 mm 1 m/s 760 mmHg 68%
    06:00 +16°C° 0 mm 1 m/s 760 mmHg 65%
    07:00 +16°C° 0 mm 1 m/s 760 mmHg 63%
    08:00 +18°C° 0 mm 1 m/s 760 mmHg 60%
    09:00 +20°C° 0.1 mm 1 m/s 760 mmHg 56%
    10:00 +21°C° 0.1 mm 1 m/s 760 mmHg 51%
    11:00 +23°C° 0.1 mm 1 m/s 759 mmHg 46%
    12:00 +23°C° 0 mm 1 m/s 759 mmHg 45%
    13:00 +24°C° 0 mm 2 m/s 759 mmHg 45%
    14:00 +24°C° 0 mm 2 m/s 758 mmHg 44%
    15:00 +23°C° 0.1 mm 2 m/s 758 mmHg 50%
    16:00 +21°C° 0.1 mm 2 m/s 758 mmHg 55%
    17:00 +19°C° 0.1 mm 2 m/s 758 mmHg 61%
    18:00 +19°C° 0.1 mm 2 m/s 758 mmHg 65%
    19:00 +18°C° 0.1 mm 2 m/s 758 mmHg 69%
    20:00 +17°C° 0.1 mm 2 m/s 758 mmHg 73%
    21:00 +16°C° 0.2 mm 2 m/s 758 mmHg 71%
    22:00 +16°C° 0.2 mm 2 m/s 758 mmHg 70%
    23:00 +16°C° 0.2 mm 2 m/s 758 mmHg 68%
    Mostrar mais